Weather in Zvezdny

Russia / Khanty-Mansi Autonomous Okrug — Yugra     61°16′47″N   73°24′18″E
temp.,
°C
wind,
m/s
gust,
m/s
humid.,
%
clouds,
%
prec.,
mm/h
press.,
hPa
HPBL,
m
6 may, thu
thu623:00+14sse6128575 4.0 999256
02:00+11sse41081100 0.1 997177
05:00+11sse61474100 0.1 994282
08:00+13sse61667100 0.1 990503
11:00+16ssw71661100 0.1 9891633
14:00+11wsw11157097 2.4 9931344
17:00+10w81460100 2.5 9961970
20:00+9wsw7136482 0.1 998824
7 may, fri
fri723:00+7wsw714707 0.3 1000828
02:00+6wsw7137355 0.0 1000822
05:00+3w8147124 0.1 10021234
08:00+4w9137186 0.0 10031308
11:00+5w91463100 0.1 10051703
14:00+7wnw91653100 0.1 10072092
17:00+8wnw8175096 0.1 10082184
20:00+6nw6135779 0.0 1010828
8 may, sat
sat823:00+3nw5146636 0.0 1012692
02:00+1wnw512744 0.0 1014512
05:00+1wnw411795 0.0 1016482
08:00+5nw58635 0.0 1017736
11:00+8nw47504 0.0 10181035
14:00+11nnw36415 0.0 10181144
17:00+12n23449 0.0 1019875
20:00+9ene355831 0.0 101996
9 may, sun
sun923:00+7se356785 0.0 102086
02:00+7se2470100 0.0 1020118
05:00+6e347545 0.0 1022152
08:00+10e34611 0.0 1023462
11:00+13ene23500 0.0 10241047
14:00+15ene22431 0.0 10241375
17:00+15ese22404 0.0 10241551
20:00+12ese225393 0.0 102424
10 may, mon
mon1023:00+9sse36700 0.0 1024123
02:00+7ssw37795 0.0 1024134
05:00+7sw37797 0.0 1024156
08:00+13w47535 0.0 1023513
11:00+17nnw46382 0.0 10221666
14:00+18n47364 0.0 10211903
17:00+17n45380 0.0 10201249
20:00+14nne335316 0.0 102051